Year,Month,Day,Hour,Minute,Value (Times are PST for temperature in C)
2016,06,26,00,00,12.60
2016,06,26,00,01,12.60
2016,06,26,00,02,12.60
2016,06,26,00,03,12.60
2016,06,26,00,04,12.60
2016,06,26,00,05,12.60
2016,06,26,00,06,12.60
2016,06,26,00,07,12.60
2016,06,26,00,08,12.60
2016,06,26,00,09,12.60
2016,06,26,00,10,12.60
2016,06,26,00,11,12.50
2016,06,26,00,12,12.50
2016,06,26,00,13,12.50
2016,06,26,00,14,12.50
2016,06,26,00,15,12.50
2016,06,26,00,16,12.50
2016,06,26,00,17,12.40
2016,06,26,00,18,12.40
2016,06,26,00,19,12.40
2016,06,26,00,20,12.40
2016,06,26,00,21,12.30
2016,06,26,00,22,12.30
2016,06,26,00,23,12.30
2016,06,26,00,24,12.30
2016,06,26,00,25,12.30
2016,06,26,00,26,12.20
2016,06,26,00,27,12.20
2016,06,26,00,28,12.20
2016,06,26,00,29,12.10
2016,06,26,00,30,12.10
2016,06,26,00,31,12.00
2016,06,26,00,32,12.00
2016,06,26,00,33,11.90
2016,06,26,00,34,11.90
2016,06,26,00,35,11.90
2016,06,26,00,36,11.80
2016,06,26,00,37,11.80
2016,06,26,00,38,11.80
2016,06,26,00,39,11.70
2016,06,26,00,40,11.70
2016,06,26,00,41,11.70
2016,06,26,00,42,11.60
2016,06,26,00,43,11.60
2016,06,26,00,44,11.60
2016,06,26,00,45,11.50
2016,06,26,00,46,11.50
2016,06,26,00,47,11.50
2016,06,26,00,48,11.40
2016,06,26,00,49,11.40
2016,06,26,00,50,11.40
2016,06,26,00,51,11.40
2016,06,26,00,52,11.40
2016,06,26,00,53,11.40
2016,06,26,00,54,11.30
2016,06,26,00,55,11.30
2016,06,26,00,56,11.30
2016,06,26,00,57,11.30
2016,06,26,00,58,11.30
2016,06,26,00,59,11.30
2016,06,26,01,00,11.30
2016,06,26,01,01,11.30
2016,06,26,01,02,11.30
2016,06,26,01,03,11.30
2016,06,26,01,04,11.30
2016,06,26,01,05,11.20
2016,06,26,01,06,11.20
2016,06,26,01,07,11.10
2016,06,26,01,08,11.10
2016,06,26,01,09,11.10
2016,06,26,01,10,11.10
2016,06,26,01,11,11.10
2016,06,26,01,12,11.10
2016,06,26,01,13,11.10
2016,06,26,01,14,11.10
2016,06,26,01,15,11.00
2016,06,26,01,16,11.00
2016,06,26,01,17,11.00
2016,06,26,01,18,11.00
2016,06,26,01,19,11.00
2016,06,26,01,20,11.00
2016,06,26,01,21,11.00
2016,06,26,01,22,10.90
2016,06,26,01,23,10.90
2016,06,26,01,24,10.90
2016,06,26,01,25,10.90
2016,06,26,01,26,10.80
2016,06,26,01,27,10.80
2016,06,26,01,28,10.80
2016,06,26,01,29,10.80
2016,06,26,01,30,10.80
2016,06,26,01,31,10.80
2016,06,26,01,32,10.70
2016,06,26,01,33,10.70
2016,06,26,01,34,10.70
2016,06,26,01,35,10.70
2016,06,26,01,36,10.70
2016,06,26,01,37,10.70
2016,06,26,01,38,10.70
2016,06,26,01,39,10.70
2016,06,26,01,40,10.70
2016,06,26,01,41,10.70
2016,06,26,01,42,10.70
2016,06,26,01,43,10.60
2016,06,26,01,44,10.60
2016,06,26,01,45,10.60
2016,06,26,01,46,10.60
2016,06,26,01,47,10.60
2016,06,26,01,48,10.60
2016,06,26,01,49,10.60
2016,06,26,01,50,10.60
2016,06,26,01,51,10.50
2016,06,26,01,52,10.50
2016,06,26,01,53,10.50
2016,06,26,01,54,10.50
2016,06,26,01,55,10.50
2016,06,26,01,56,10.40
2016,06,26,01,57,10.40
2016,06,26,01,58,10.40
2016,06,26,01,59,10.40
2016,06,26,02,00,10.40
2016,06,26,02,01,10.40
2016,06,26,02,02,10.40
2016,06,26,02,03,10.40
2016,06,26,02,04,10.40
2016,06,26,02,05,10.40
2016,06,26,02,06,10.40
2016,06,26,02,07,10.30
2016,06,26,02,08,10.30
2016,06,26,02,09,10.30
2016,06,26,02,10,10.30
2016,06,26,02,11,10.30
2016,06,26,02,12,10.30
2016,06,26,02,13,10.30
2016,06,26,02,14,10.30
2016,06,26,02,15,10.30
2016,06,26,02,16,10.30
2016,06,26,02,17,10.30
2016,06,26,02,18,10.30
2016,06,26,02,19,10.30
2016,06,26,02,20,10.30
2016,06,26,02,21,10.20
2016,06,26,02,22,10.20
2016,06,26,02,23,10.20
2016,06,26,02,24,10.20
2016,06,26,02,25,10.20
2016,06,26,02,26,10.20
2016,06,26,02,27,10.20
2016,06,26,02,28,10.20
2016,06,26,02,29,10.20
2016,06,26,02,30,10.20
2016,06,26,02,31,10.10
2016,06,26,02,32,10.10
2016,06,26,02,33,10.10
2016,06,26,02,34,10.10
2016,06,26,02,35,10.10
2016,06,26,02,36,10.10
2016,06,26,02,37,10.10
2016,06,26,02,38,10.00
2016,06,26,02,39,10.00
2016,06,26,02,40,10.00
2016,06,26,02,41,10.00
2016,06,26,02,42,9.90
2016,06,26,02,43,9.90
2016,06,26,02,44,9.90
2016,06,26,02,45,9.90
2016,06,26,02,46,9.90
2016,06,26,02,47,9.90
2016,06,26,02,48,9.90
2016,06,26,02,49,9.90
2016,06,26,02,50,9.90
2016,06,26,02,51,9.90
2016,06,26,02,52,9.90
2016,06,26,02,53,9.90
2016,06,26,02,54,9.90
2016,06,26,02,55,9.90
2016,06,26,02,56,9.90
2016,06,26,02,57,9.90
2016,06,26,02,58,9.80
2016,06,26,02,59,9.80
2016,06,26,03,00,9.80
2016,06,26,03,01,9.80
2016,06,26,03,02,9.80
2016,06,26,03,03,9.80
2016,06,26,03,04,9.80
2016,06,26,03,05,9.80
2016,06,26,03,06,9.80
2016,06,26,03,07,9.80
2016,06,26,03,08,9.80
2016,06,26,03,09,9.70
2016,06,26,03,10,9.70
2016,06,26,03,11,9.70
2016,06,26,03,12,9.70
2016,06,26,03,13,9.70
2016,06,26,03,14,9.70
2016,06,26,03,15,9.70
2016,06,26,03,16,9.70
2016,06,26,03,17,9.70
2016,06,26,03,18,9.70
2016,06,26,03,19,9.60
2016,06,26,03,20,9.60
2016,06,26,03,21,9.60
2016,06,26,03,22,9.60
2016,06,26,03,23,9.60
2016,06,26,03,24,9.60
2016,06,26,03,25,9.60
2016,06,26,03,26,9.60
2016,06,26,03,27,9.60
2016,06,26,03,28,9.60
2016,06,26,03,29,9.60
2016,06,26,03,30,9.60
2016,06,26,03,31,9.60
2016,06,26,03,32,9.60
2016,06,26,03,33,9.60
2016,06,26,03,34,9.60
2016,06,26,03,35,9.60
2016,06,26,03,36,9.60
2016,06,26,03,37,9.60
2016,06,26,03,38,9.60
2016,06,26,03,39,9.60
2016,06,26,03,40,9.60
2016,06,26,03,41,9.60
2016,06,26,03,42,9.60
2016,06,26,03,43,9.60
2016,06,26,03,44,9.60
2016,06,26,03,45,9.50
2016,06,26,03,46,9.50
2016,06,26,03,47,9.50
2016,06,26,03,48,9.50
2016,06,26,03,49,9.50
2016,06,26,03,50,9.50
2016,06,26,03,51,9.50
2016,06,26,03,52,9.60
2016,06,26,03,53,9.50
2016,06,26,03,54,9.50
2016,06,26,03,55,9.50
2016,06,26,03,56,9.50
2016,06,26,03,57,9.50
2016,06,26,03,58,9.50
2016,06,26,03,59,9.50
2016,06,26,04,00,9.50
2016,06,26,04,01,9.40
2016,06,26,04,02,9.40
2016,06,26,04,03,9.40
2016,06,26,04,04,9.40
2016,06,26,04,05,9.40
2016,06,26,04,06,9.40
2016,06,26,04,07,9.40
2016,06,26,04,08,9.50
2016,06,26,04,09,9.50
2016,06,26,04,10,9.50
2016,06,26,04,11,9.50
2016,06,26,04,12,9.40
2016,06,26,04,13,9.40
2016,06,26,04,14,9.40
2016,06,26,04,15,9.40
2016,06,26,04,16,9.40
2016,06,26,04,17,9.40
2016,06,26,04,18,9.40
2016,06,26,04,19,9.40
2016,06,26,04,20,9.40
2016,06,26,04,21,9.40
2016,06,26,04,22,9.40
2016,06,26,04,23,9.40
2016,06,26,04,24,9.40
2016,06,26,04,25,9.40
2016,06,26,04,26,9.40
2016,06,26,04,27,9.40
2016,06,26,04,28,9.40
2016,06,26,04,29,9.40
2016,06,26,04,30,9.40
2016,06,26,04,31,9.30
2016,06,26,04,32,9.30
2016,06,26,04,33,9.30
2016,06,26,04,34,9.30
2016,06,26,04,35,9.30
2016,06,26,04,36,9.30
2016,06,26,04,37,9.20
2016,06,26,04,38,9.20
2016,06,26,04,39,9.20
2016,06,26,04,40,9.20
2016,06,26,04,41,9.20
2016,06,26,04,42,9.20
2016,06,26,04,43,9.20
2016,06,26,04,44,9.20
2016,06,26,04,45,9.10
2016,06,26,04,46,9.10
2016,06,26,04,47,9.10
2016,06,26,04,48,9.10
2016,06,26,04,49,9.10
2016,06,26,04,50,9.10
2016,06,26,04,51,9.10
2016,06,26,04,52,9.10
2016,06,26,04,53,9.10
2016,06,26,04,54,9.00
2016,06,26,04,55,9.00
2016,06,26,04,56,9.00
2016,06,26,04,57,9.00
2016,06,26,04,58,9.00
2016,06,26,04,59,9.00
2016,06,26,05,00,9.00
2016,06,26,05,01,9.00
2016,06,26,05,02,9.00
2016,06,26,05,03,9.00
2016,06,26,05,04,9.00
2016,06,26,05,05,9.00
2016,06,26,05,06,9.00
2016,06,26,05,07,9.00
2016,06,26,05,08,9.00
2016,06,26,05,09,9.00
2016,06,26,05,10,9.00
2016,06,26,05,11,8.90
2016,06,26,05,12,8.90
2016,06,26,05,13,8.90
2016,06,26,05,14,8.90
2016,06,26,05,15,8.90
2016,06,26,05,16,8.90
2016,06,26,05,17,8.90
2016,06,26,05,18,8.90
2016,06,26,05,19,8.90
2016,06,26,05,20,9.00
2016,06,26,05,21,9.00
2016,06,26,05,22,9.00
2016,06,26,05,23,9.00
2016,06,26,05,24,9.00
2016,06,26,05,25,9.00
2016,06,26,05,26,9.00
2016,06,26,05,27,9.00
2016,06,26,05,28,9.00
2016,06,26,05,29,9.00
2016,06,26,05,30,9.00
2016,06,26,05,31,9.00
2016,06,26,05,32,9.00
2016,06,26,05,33,9.00
2016,06,26,05,34,9.00
2016,06,26,05,35,9.00
2016,06,26,05,36,9.00
2016,06,26,05,37,9.00
2016,06,26,05,38,9.00
2016,06,26,05,39,9.00
2016,06,26,05,40,9.10
2016,06,26,05,41,9.10
2016,06,26,05,42,9.10
2016,06,26,05,43,9.10
2016,06,26,05,44,9.10
2016,06,26,05,45,9.10
2016,06,26,05,46,9.10
2016,06,26,05,47,9.10
2016,06,26,05,48,9.10
2016,06,26,05,49,9.10
2016,06,26,05,50,9.10
2016,06,26,05,51,9.10
2016,06,26,05,52,9.10
2016,06,26,05,53,9.10
2016,06,26,05,54,9.10
2016,06,26,05,55,9.10
2016,06,26,05,56,9.10
2016,06,26,05,57,9.10
2016,06,26,05,58,9.10
2016,06,26,05,59,9.10
2016,06,26,06,00,9.20
2016,06,26,06,01,9.20
2016,06,26,06,02,9.20
2016,06,26,06,03,9.20
2016,06,26,06,04,9.20
2016,06,26,06,05,9.20
2016,06,26,06,06,9.20
2016,06,26,06,07,9.30
2016,06,26,06,08,9.30
2016,06,26,06,09,9.30
2016,06,26,06,10,9.30
2016,06,26,06,11,9.30
2016,06,26,06,12,9.30
2016,06,26,06,13,9.30
2016,06,26,06,14,9.40
2016,06,26,06,15,9.40
2016,06,26,06,16,9.40
2016,06,26,06,17,9.40
2016,06,26,06,18,9.50
2016,06,26,06,19,9.50
2016,06,26,06,20,9.60
2016,06,26,06,21,9.60
2016,06,26,06,22,9.60
2016,06,26,06,23,9.70
2016,06,26,06,24,9.70
2016,06,26,06,25,9.70
2016,06,26,06,26,9.80
2016,06,26,06,27,9.80
2016,06,26,06,28,9.80
2016,06,26,06,29,9.90
2016,06,26,06,30,9.90
2016,06,26,06,31,9.90
2016,06,26,06,32,10.00
2016,06,26,06,33,10.00
2016,06,26,06,34,10.00
2016,06,26,06,35,10.10
2016,06,26,06,36,10.10
2016,06,26,06,37,10.10
2016,06,26,06,38,10.10
2016,06,26,06,39,10.10
2016,06,26,06,40,10.20
2016,06,26,06,41,10.20
2016,06,26,06,42,10.20
2016,06,26,06,43,10.20
2016,06,26,06,44,10.20
2016,06,26,06,45,10.30
2016,06,26,06,46,10.30
2016,06,26,06,47,10.30
2016,06,26,06,48,10.40
2016,06,26,06,49,10.40
2016,06,26,06,50,10.50
2016,06,26,06,51,10.60
2016,06,26,06,52,10.60
2016,06,26,06,53,10.70
2016,06,26,06,54,10.70
2016,06,26,06,55,10.80
2016,06,26,06,56,10.80
2016,06,26,06,57,10.90
2016,06,26,06,58,10.90
2016,06,26,06,59,11.00
2016,06,26,07,00,11.10
2016,06,26,07,01,11.10
2016,06,26,07,02,11.20
2016,06,26,07,03,11.30
2016,06,26,07,04,11.40
2016,06,26,07,05,11.50
2016,06,26,07,06,11.60
2016,06,26,07,07,11.60
2016,06,26,07,08,11.70
2016,06,26,07,09,11.80
2016,06,26,07,10,11.80
2016,06,26,07,11,11.80
2016,06,26,07,12,11.90
2016,06,26,07,13,12.00
2016,06,26,07,14,12.00
2016,06,26,07,15,12.10
2016,06,26,07,16,12.20
2016,06,26,07,17,12.20
2016,06,26,07,18,12.30
2016,06,26,07,19,12.30
2016,06,26,07,20,12.40
2016,06,26,07,21,12.50
2016,06,26,07,22,12.60
2016,06,26,07,23,12.60
2016,06,26,07,24,12.60
2016,06,26,07,25,12.70
2016,06,26,07,26,12.70
2016,06,26,07,27,12.80
2016,06,26,07,28,12.90
2016,06,26,07,29,13.00
2016,06,26,07,30,13.10
2016,06,26,07,31,13.20
2016,06,26,07,32,13.30
2016,06,26,07,33,13.40
2016,06,26,07,34,13.50
2016,06,26,07,35,13.60
2016,06,26,07,36,13.60
2016,06,26,07,37,13.70
2016,06,26,07,38,13.70
2016,06,26,07,39,13.80
2016,06,26,07,40,13.90
2016,06,26,07,41,14.00
2016,06,26,07,42,14.10
2016,06,26,07,43,14.20
2016,06,26,07,44,14.30
2016,06,26,07,45,14.40
2016,06,26,07,46,14.50
2016,06,26,07,47,14.60
2016,06,26,07,48,14.70
2016,06,26,07,49,14.80
2016,06,26,07,50,14.90
2016,06,26,07,51,14.90
2016,06,26,07,52,15.00
2016,06,26,07,53,15.10
2016,06,26,07,54,15.20
2016,06,26,07,55,15.30
2016,06,26,07,56,15.30
2016,06,26,07,57,15.40
2016,06,26,07,58,15.40
2016,06,26,07,59,15.50
2016,06,26,08,00,15.50
2016,06,26,08,01,15.60
2016,06,26,08,02,15.60
2016,06,26,08,03,15.70
2016,06,26,08,04,15.80
2016,06,26,08,05,15.80
2016,06,26,08,06,15.90
2016,06,26,08,07,15.90
2016,06,26,08,08,16.00
2016,06,26,08,09,16.10
2016,06,26,08,10,16.10
2016,06,26,08,11,16.20
2016,06,26,08,12,16.20
2016,06,26,08,13,16.30
2016,06,26,08,14,16.30
2016,06,26,08,15,16.40
2016,06,26,08,16,16.40
2016,06,26,08,17,16.40
2016,06,26,08,18,16.40
2016,06,26,08,19,16.40
2016,06,26,08,20,16.40
2016,06,26,08,21,16.40
2016,06,26,08,22,16.40
2016,06,26,08,23,16.50
2016,06,26,08,24,16.50
2016,06,26,08,25,16.50
2016,06,26,08,26,16.60
2016,06,26,08,27,16.60
2016,06,26,08,28,16.60
2016,06,26,08,29,16.60
2016,06,26,08,30,16.70
2016,06,26,08,31,16.70
2016,06,26,08,32,16.70
2016,06,26,08,33,16.80
2016,06,26,08,34,16.80
2016,06,26,08,35,16.80
2016,06,26,08,36,16.80
2016,06,26,08,37,16.90
2016,06,26,08,38,16.90
2016,06,26,08,39,16.90
2016,06,26,08,40,16.90
2016,06,26,08,41,16.90
2016,06,26,08,42,16.90
2016,06,26,08,43,16.90
2016,06,26,08,44,16.80
2016,06,26,08,45,16.80
2016,06,26,08,46,16.80
2016,06,26,08,47,16.80
2016,06,26,08,48,16.80
2016,06,26,08,49,16.90
2016,06,26,08,50,16.90
2016,06,26,08,51,16.90
2016,06,26,08,52,16.90
2016,06,26,08,53,16.90
2016,06,26,08,54,16.90
2016,06,26,08,55,16.80
2016,06,26,08,56,16.80
2016,06,26,08,57,16.80
2016,06,26,08,58,16.80
2016,06,26,08,59,16.90
2016,06,26,09,00,17.00
2016,06,26,09,01,17.00
2016,06,26,09,02,17.10
2016,06,26,09,03,17.20
2016,06,26,09,04,17.30
2016,06,26,09,05,17.30
2016,06,26,09,06,17.40
2016,06,26,09,07,17.50
2016,06,26,09,08,17.60
2016,06,26,09,09,17.60
2016,06,26,09,10,17.70
2016,06,26,09,11,17.70
2016,06,26,09,12,17.70
2016,06,26,09,13,17.60
2016,06,26,09,14,17.60
2016,06,26,09,15,17.50
2016,06,26,09,16,17.40
2016,06,26,09,17,17.40
2016,06,26,09,18,17.40
2016,06,26,09,19,17.40
2016,06,26,09,20,17.50
2016,06,26,09,21,17.50
2016,06,26,09,22,17.50
2016,06,26,09,23,17.60
2016,06,26,09,24,17.60
2016,06,26,09,25,17.70
2016,06,26,09,26,17.70
2016,06,26,09,27,17.70
2016,06,26,09,28,17.70
2016,06,26,09,29,17.80
2016,06,26,09,30,17.80
2016,06,26,09,31,17.80
2016,06,26,09,32,17.80
2016,06,26,09,33,17.90
2016,06,26,09,34,17.90
2016,06,26,09,35,18.00
2016,06,26,09,36,18.00
2016,06,26,09,37,18.10
2016,06,26,09,38,18.10
2016,06,26,09,39,18.10
2016,06,26,09,40,18.10
2016,06,26,09,41,18.10
2016,06,26,09,42,18.00
2016,06,26,09,43,17.90
2016,06,26,09,44,17.90
2016,06,26,09,45,17.80
2016,06,26,09,46,17.80
2016,06,26,09,47,17.80
2016,06,26,09,48,17.70
2016,06,26,09,49,17.70
2016,06,26,09,50,17.80
2016,06,26,09,51,17.80
2016,06,26,09,52,17.80
2016,06,26,09,53,17.90
2016,06,26,09,54,18.00
2016,06,26,09,55,18.00
2016,06,26,09,56,18.10
2016,06,26,09,57,18.20
2016,06,26,09,58,18.20
2016,06,26,09,59,18.20
2016,06,26,10,00,18.20
2016,06,26,10,01,18.20
2016,06,26,10,02,18.30
2016,06,26,10,03,18.30
2016,06,26,10,04,18.30
2016,06,26,10,05,18.30
2016,06,26,10,06,18.40
2016,06,26,10,07,18.40
2016,06,26,10,08,18.40
2016,06,26,10,09,18.30
2016,06,26,10,10,18.30
2016,06,26,10,11,18.30
2016,06,26,10,12,18.20
2016,06,26,10,13,18.20
2016,06,26,10,14,18.20
2016,06,26,10,15,18.20
2016,06,26,10,16,18.20
2016,06,26,10,17,18.20
2016,06,26,10,18,18.30
2016,06,26,10,19,18.30
2016,06,26,10,20,18.30
2016,06,26,10,21,18.40
2016,06,26,10,22,18.40
2016,06,26,10,23,18.50
2016,06,26,10,24,18.60
2016,06,26,10,25,18.70
2016,06,26,10,26,18.70
2016,06,26,10,27,18.80
2016,06,26,10,28,18.90
2016,06,26,10,29,18.90
2016,06,26,10,30,19.00
2016,06,26,10,31,19.00
2016,06,26,10,32,19.10
2016,06,26,10,33,19.10
2016,06,26,10,34,19.20
2016,06,26,10,35,19.20
2016,06,26,10,36,19.20
2016,06,26,10,37,19.30
2016,06,26,10,38,19.40
2016,06,26,10,39,19.50
2016,06,26,10,40,19.50
2016,06,26,10,41,19.60
2016,06,26,10,42,19.60
2016,06,26,10,43,19.60
2016,06,26,10,44,19.60
2016,06,26,10,45,19.60
2016,06,26,10,46,19.60
2016,06,26,10,47,19.70
2016,06,26,10,48,19.70
2016,06,26,10,49,19.80
2016,06,26,10,50,19.80
2016,06,26,10,51,19.90
2016,06,26,10,52,20.00
2016,06,26,10,53,20.10
2016,06,26,10,54,20.20
2016,06,26,10,55,20.30
2016,06,26,10,56,20.40
2016,06,26,10,57,20.40
2016,06,26,10,58,20.50
2016,06,26,10,59,20.50
2016,06,26,11,00,20.60
2016,06,26,11,01,20.60
2016,06,26,11,02,20.70
2016,06,26,11,03,20.60
2016,06,26,11,04,20.40
2016,06,26,11,05,20.40
2016,06,26,11,06,20.30
2016,06,26,11,07,20.30
2016,06,26,11,08,20.20
2016,06,26,11,09,20.20
2016,06,26,11,10,20.20
2016,06,26,11,11,20.20
2016,06,26,11,12,20.20
2016,06,26,11,13,20.10
2016,06,26,11,14,20.10
2016,06,26,11,15,20.00
2016,06,26,11,16,19.90
2016,06,26,11,17,19.80
2016,06,26,11,18,19.70
2016,06,26,11,19,19.60
2016,06,26,11,20,19.50
2016,06,26,11,21,19.40
2016,06,26,11,22,19.40
2016,06,26,11,23,19.40
2016,06,26,11,24,19.30
2016,06,26,11,25,19.30
2016,06,26,11,26,19.30
2016,06,26,11,27,19.40
2016,06,26,11,28,19.40
2016,06,26,11,29,19.40
2016,06,26,11,30,19.40
2016,06,26,11,31,19.40
2016,06,26,11,32,19.40
2016,06,26,11,33,19.40
2016,06,26,11,34,19.40
2016,06,26,11,35,19.40
2016,06,26,11,36,19.40
2016,06,26,11,37,19.40
2016,06,26,11,38,19.40
2016,06,26,11,39,19.40
2016,06,26,11,40,19.40
2016,06,26,11,41,19.40
2016,06,26,11,42,19.40
2016,06,26,11,43,19.50
2016,06,26,11,44,19.60
2016,06,26,11,45,19.70
2016,06,26,11,46,19.70
2016,06,26,11,47,19.80
2016,06,26,11,48,19.80
2016,06,26,11,49,19.80
2016,06,26,11,50,19.80
2016,06,26,11,51,19.90
2016,06,26,11,52,19.90
2016,06,26,11,53,19.90
2016,06,26,11,54,19.90
2016,06,26,11,55,19.90
2016,06,26,11,56,19.90
2016,06,26,11,57,19.90
2016,06,26,11,58,20.00
2016,06,26,11,59,20.10
2016,06,26,12,00,20.20
2016,06,26,12,01,20.20
2016,06,26,12,02,20.30
2016,06,26,12,03,20.40
2016,06,26,12,04,20.40
2016,06,26,12,05,20.40
2016,06,26,12,06,20.40
2016,06,26,12,07,20.30
2016,06,26,12,08,20.30
2016,06,26,12,09,20.20
2016,06,26,12,10,20.30
2016,06,26,12,11,20.30
2016,06,26,12,12,20.30
2016,06,26,12,13,20.30
2016,06,26,12,14,20.20
2016,06,26,12,15,20.10
2016,06,26,12,16,20.00
2016,06,26,12,17,19.90
2016,06,26,12,18,19.90
2016,06,26,12,19,19.80
2016,06,26,12,20,19.80
2016,06,26,12,21,19.90
2016,06,26,12,22,19.80
2016,06,26,12,23,19.80
2016,06,26,12,24,19.90
2016,06,26,12,25,19.90
2016,06,26,12,26,20.00
2016,06,26,12,27,20.00
2016,06,26,12,28,20.10
2016,06,26,12,29,20.10
2016,06,26,12,30,20.20
2016,06,26,12,31,20.20
2016,06,26,12,32,20.20
2016,06,26,12,33,20.30
2016,06,26,12,34,20.40
2016,06,26,12,35,20.50
2016,06,26,12,36,20.60
2016,06,26,12,37,20.80
2016,06,26,12,38,20.80
2016,06,26,12,39,20.80
2016,06,26,12,40,20.80
2016,06,26,12,41,20.80
2016,06,26,12,42,20.80
2016,06,26,12,43,20.80
2016,06,26,12,44,20.70
2016,06,26,12,45,20.60
2016,06,26,12,46,20.50
2016,06,26,12,47,20.40
2016,06,26,12,48,20.30
2016,06,26,12,49,20.30
2016,06,26,12,50,20.20
2016,06,26,12,51,20.10
2016,06,26,12,52,20.10
2016,06,26,12,53,20.20
2016,06,26,12,54,20.20
2016,06,26,12,55,20.10
2016,06,26,12,56,20.00
2016,06,26,12,57,19.90
2016,06,26,12,58,20.00
2016,06,26,12,59,20.00
2016,06,26,13,00,20.10
2016,06,26,13,01,20.10
2016,06,26,13,02,20.10
2016,06,26,13,03,20.00
2016,06,26,13,04,19.90
2016,06,26,13,05,19.80
2016,06,26,13,06,19.80
2016,06,26,13,07,19.70
2016,06,26,13,08,19.70
2016,06,26,13,09,19.60
2016,06,26,13,10,19.60
2016,06,26,13,11,19.60
2016,06,26,13,12,19.60
2016,06,26,13,13,19.60
2016,06,26,13,14,19.60
2016,06,26,13,15,19.60
2016,06,26,13,16,19.70
2016,06,26,13,17,19.80
2016,06,26,13,18,19.80
2016,06,26,13,19,19.80
2016,06,26,13,20,19.80
2016,06,26,13,21,19.80
2016,06,26,13,22,19.80
2016,06,26,13,23,19.80
2016,06,26,13,24,19.80
2016,06,26,13,25,19.80
2016,06,26,13,26,19.80
2016,06,26,13,27,19.80
2016,06,26,13,28,19.80
2016,06,26,13,29,19.90
2016,06,26,13,30,20.00
2016,06,26,13,31,20.10
2016,06,26,13,32,20.10
2016,06,26,13,33,20.20
2016,06,26,13,34,20.30
2016,06,26,13,35,20.20
2016,06,26,13,36,20.10
2016,06,26,13,37,20.10
2016,06,26,13,38,20.10
2016,06,26,13,39,20.00
2016,06,26,13,40,20.00
2016,06,26,13,41,19.90
2016,06,26,13,42,19.90
2016,06,26,13,43,19.80
2016,06,26,13,44,19.80
2016,06,26,13,45,19.90
2016,06,26,13,46,19.90
2016,06,26,13,47,19.90
2016,06,26,13,48,20.00
2016,06,26,13,49,20.00
2016,06,26,13,50,20.00
2016,06,26,13,51,20.10
2016,06,26,13,52,20.00
2016,06,26,13,53,20.00
2016,06,26,13,54,20.00
2016,06,26,13,55,19.90
2016,06,26,13,56,19.80
2016,06,26,13,57,19.80
2016,06,26,13,58,19.80
2016,06,26,13,59,19.80
2016,06,26,14,00,19.90
2016,06,26,14,01,19.90
2016,06,26,14,02,19.90
2016,06,26,14,03,20.00
2016,06,26,14,04,20.00
2016,06,26,14,05,20.00
2016,06,26,14,06,20.00
2016,06,26,14,07,20.00
2016,06,26,14,08,19.90
2016,06,26,14,09,19.70
2016,06,26,14,10,19.60
2016,06,26,14,11,19.40
2016,06,26,14,12,19.30
2016,06,26,14,13,19.20
2016,06,26,14,14,19.30
2016,06,26,14,15,19.30
2016,06,26,14,16,19.30
2016,06,26,14,17,19.30
2016,06,26,14,18,19.40
2016,06,26,14,19,19.50
2016,06,26,14,20,19.60
2016,06,26,14,21,19.70
2016,06,26,14,22,19.80
2016,06,26,14,23,19.90
2016,06,26,14,24,20.00
2016,06,26,14,25,20.00
2016,06,26,14,26,20.10
2016,06,26,14,27,20.20
2016,06,26,14,28,20.20
2016,06,26,14,29,20.30
2016,06,26,14,30,20.30
2016,06,26,14,31,20.20
2016,06,26,14,32,20.10
2016,06,26,14,33,20.00
2016,06,26,14,34,19.80
2016,06,26,14,35,19.70
2016,06,26,14,36,19.70
2016,06,26,14,37,19.70
2016,06,26,14,38,19.70
2016,06,26,14,39,19.70
2016,06,26,14,40,19.80
2016,06,26,14,41,19.80
2016,06,26,14,42,19.90
2016,06,26,14,43,20.00
2016,06,26,14,44,20.10
2016,06,26,14,45,20.20
2016,06,26,14,46,20.30
2016,06,26,14,47,20.30
2016,06,26,14,48,20.40
2016,06,26,14,49,20.50
2016,06,26,14,50,20.60
2016,06,26,14,51,20.60
2016,06,26,14,52,20.70
2016,06,26,14,53,20.80
2016,06,26,14,54,20.80
2016,06,26,14,55,20.90
2016,06,26,14,56,21.00
2016,06,26,14,57,21.10
2016,06,26,14,58,21.30
2016,06,26,14,59,21.30
2016,06,26,15,00,21.30
2016,06,26,15,01,21.30
2016,06,26,15,02,21.20
2016,06,26,15,03,21.20
2016,06,26,15,04,21.20
2016,06,26,15,05,21.10
2016,06,26,15,06,21.10
2016,06,26,15,07,21.00
2016,06,26,15,08,21.00
2016,06,26,15,09,21.00
2016,06,26,15,10,20.90
2016,06,26,15,11,20.90
2016,06,26,15,12,20.90
2016,06,26,15,13,20.90
2016,06,26,15,14,20.80
2016,06,26,15,15,20.90
2016,06,26,15,16,20.90
2016,06,26,15,17,20.90
2016,06,26,15,18,20.90
2016,06,26,15,19,20.90
2016,06,26,15,20,21.00
2016,06,26,15,21,21.00
2016,06,26,15,22,21.10
2016,06,26,15,23,21.30
2016,06,26,15,24,21.40
2016,06,26,15,25,21.50
2016,06,26,15,26,21.60
2016,06,26,15,27,21.50
2016,06,26,15,28,21.50
2016,06,26,15,29,21.40
2016,06,26,15,30,21.40
2016,06,26,15,31,21.40
2016,06,26,15,32,21.30
2016,06,26,15,33,21.40
2016,06,26,15,34,21.40
2016,06,26,15,35,21.40
2016,06,26,15,36,21.40
2016,06,26,15,37,21.40
2016,06,26,15,38,21.40
2016,06,26,15,39,21.40
2016,06,26,15,40,21.40
2016,06,26,15,41,21.40
2016,06,26,15,42,21.50
2016,06,26,15,43,21.60
2016,06,26,15,44,21.70
2016,06,26,15,45,21.70
2016,06,26,15,46,21.80
2016,06,26,15,47,21.80
2016,06,26,15,48,21.90
2016,06,26,15,49,22.00
2016,06,26,15,50,22.00
2016,06,26,15,51,22.10
2016,06,26,15,52,22.10
2016,06,26,15,53,22.10
2016,06,26,15,54,22.20
2016,06,26,15,55,22.20
2016,06,26,15,56,22.30
2016,06,26,15,57,22.30
2016,06,26,15,58,22.30
2016,06,26,15,59,22.40
2016,06,26,16,00,22.40
2016,06,26,16,01,22.40
2016,06,26,16,02,22.40
2016,06,26,16,03,22.50
2016,06,26,16,04,22.50
2016,06,26,16,05,22.60
2016,06,26,16,06,22.70
2016,06,26,16,07,22.70
2016,06,26,16,08,22.80
2016,06,26,16,09,22.80
2016,06,26,16,10,22.90
2016,06,26,16,11,22.90
2016,06,26,16,12,22.90
2016,06,26,16,13,22.80
2016,06,26,16,14,22.80
2016,06,26,16,15,22.80
2016,06,26,16,16,22.90
2016,06,26,16,17,22.90
2016,06,26,16,18,22.80
2016,06,26,16,19,22.80
2016,06,26,16,20,22.80
2016,06,26,16,21,22.80
2016,06,26,16,22,22.80
2016,06,26,16,23,22.80
2016,06,26,16,24,22.80
2016,06,26,16,25,22.80
2016,06,26,16,26,22.70
2016,06,26,16,27,22.80
2016,06,26,16,28,22.80
2016,06,26,16,29,22.80
2016,06,26,16,30,22.90
2016,06,26,16,31,22.90
2016,06,26,16,32,23.00
2016,06,26,16,33,23.00
2016,06,26,16,34,23.10
2016,06,26,16,35,23.10
2016,06,26,16,36,23.20
2016,06,26,16,37,23.20
2016,06,26,16,38,23.20
2016,06,26,16,39,23.30
2016,06,26,16,40,23.30
2016,06,26,16,41,23.30
2016,06,26,16,42,23.30
2016,06,26,16,43,23.30
2016,06,26,16,44,23.30
2016,06,26,16,45,23.30
2016,06,26,16,46,23.30
2016,06,26,16,47,23.30
2016,06,26,16,48,23.30
2016,06,26,16,49,23.20
2016,06,26,16,50,23.20
2016,06,26,16,51,23.20
2016,06,26,16,52,23.20
2016,06,26,16,53,23.20
2016,06,26,16,54,23.20
2016,06,26,16,55,23.20
2016,06,26,16,56,23.20
2016,06,26,16,57,23.20
2016,06,26,16,58,23.20
2016,06,26,16,59,23.10
2016,06,26,17,00,23.10
2016,06,26,17,01,23.10
2016,06,26,17,02,23.10
2016,06,26,17,03,23.20
2016,06,26,17,04,23.20
2016,06,26,17,05,23.20
2016,06,26,17,06,23.30
2016,06,26,17,07,23.30
2016,06,26,17,08,23.30
2016,06,26,17,09,23.30
2016,06,26,17,10,23.20
2016,06,26,17,11,23.20
2016,06,26,17,12,23.20
2016,06,26,17,13,23.30
2016,06,26,17,14,23.30
2016,06,26,17,15,23.20
2016,06,26,17,16,23.20
2016,06,26,17,17,23.20
2016,06,26,17,18,23.10
2016,06,26,17,19,23.10
2016,06,26,17,20,23.10
2016,06,26,17,21,23.10
2016,06,26,17,22,23.10
2016,06,26,17,23,23.10
2016,06,26,17,24,23.10
2016,06,26,17,25,23.10
2016,06,26,17,26,23.10
2016,06,26,17,27,23.10
2016,06,26,17,28,23.10
2016,06,26,17,29,23.10